Wind_Speed
32 31 31 31 32 33 33 33 34 33 33 31 30 29 28 27 27 27 27 27 27 28 28 28 29 28 26 26 26 25 25 25 25 26 26 26 27 28 27 27 28 29 28 27
33 33 33 34 33 34 34 34 34 35 34 32 31 30 30 29 28 28 27 28 28 28 29 29 29 28 28 28 28 27 27 27 28 29 29 28 29 30 29 29 30 29 29 29
35 35 35 35 34 35 35 35 36 35 34 34 33 31 30 30 29 29 29 29 29 30 30 30 29 29 30 30 29 29 29 29 30 30 30 30 31 31 32 31 31 30 30 30
38 37 37 35 34 36 37 36 37 37 36 36 35 33 33 33 32 30 30 30 30 30 30 30 30 31 32 32 31 32 32 32 32 32 32 32 33 33 32 31 31 31 31 32
39 39 38 36 36 36 37 37 37 37 37 37 36 34 33 33 33 32 32 32 32 32 32 32 31 32 32 32 34 34 34 33 32 33 33 33 34 33 33 33 33 33 33 33
40 41 40 37 37 37 37 38 36 37 37 37 37 35 34 33 34 34 35 35 34 34 35 35 35 35 35 34 35 36 35 34 33 34 35 34 34 34 34 34 34 34 34 34
40 41 41 40 39 38 38 37 36 37 37 37 37 36 35 35 35 35 36 36 36 36 36 36 36 35 36 36 35 36 36 35 35 35 35 34 34 35 35 35 35 34 35 35
39 40 40 39 39 40 39 38 37 36 37 38 38 38 37 37 36 36 36 36 37 38 38 38 36 35 36 36 36 36 36 36 36 35 35 36 36 36 36 36 36 36 35 35
40 40 40 39 39 39 39 38 38 37 37 38 38 38 38 37 37 37 37 38 38 39 39 37 36 36 36 36 36 36 37 37 36 35 36 37 37 36 36 36 37 36 35 35
38 38 39 39 39 38 38 38 38 38 38 38 38 39 39 38 38 38 38 38 38 38 38 37 37 36 35 35 35 35 36 37 37 37 36 36 36 36 36 36 36 36 36 35
37 37 37 37 37 38 38 38 38 37 37 38 39 39 39 39 38 38 38 37 37 36 36 35 36 36 36 36 36 37 37 38 38 37 37 36 36 36 36 36 36 36 35 34
37 36 37 36 37 37 38 38 38 38 38 38 39 39 38 38 38 37 37 37 36 36 35 35 35 35 35 35 36 36 36 36 37 37 37 37 37 36 36 36 36 36 35 35
37 36 36 35 35 36 36 37 38 38 38 38 38 38 37 37 37 37 37 36 36 36 36 35 34 35 35 35 35 35 35 36 37 37 36 36 36 36 36 36 35 35 35 35
35 35 34 34 34 35 36 37 37 37 37 37 37 37 37 36 36 36 36 36 36 36 35 35 35 35 35 35 34 34 34 35 35 36 37 37 36 36 36 36 35 35 35 35
33 33 32 32 33 34 35 35 36 36 36 36 36 37 36 36 35 35 35 35 35 35 34 34 35 35 34 34 34 34 33 33 34 35 35 36 35 35 36 36 35 35 35 34
31 31 31 31 31 32 33 33 33 33 34 34 35 35 35 35 34 33 33 33 33 33 33 33 32 32 34 33 33 32 32 32 33 34 34 34 34 35 35 34 34 34 34 34
28 29 30 30 29 29 29 30 30 31 32 32 32 32 32 33 32 31 30 31 32 31 31 31 31 31 31 30 30 30 30 31 32 32 31 30 30 31 33 33 33 33 32 32
22 23 25 26 25 25 25 26 27 27 27 27 28 28 29 29 29 29 29 29 29 29 29 29 29 29 29 29 28 27 27 28 28 29 27 28 28 29 29 30 30 30 31 31
20 20 21 22 22 22 23 23 24 24 24 24 25 25 25 26 27 27 27 27 27 27 28 28 28 28 27 27 26 26 27 27 28 28 27 27 27 28 28 28 28 29 29 29
18 18 18 19 19 20 21 21 21 21 21 22 23 23 24 25 25 26 25 25 25 26 26 26 26 26 26 26 25 25 25 25 26 26 26 26 26 26 25 26 26 26 27 27
14 15 15 17 18 18 18 19 19 19 19 20 21 22 22 23 23 24 24 24 24 25 25 25 25 25 24 24 24 23 24 24 24 24 25 25 24 24 25 25 25 25 26 26
11 12 13 15 15 16 16 17 18 18 18 19 19 20 21 22 22 23 23 23 24 24 24 24 24 23 23 23 23 24 24 24 24 24 24 25 25 25 25 25 25 25 25 25
10 11 11 11 12 13 13 14 15 16 16 16 17 18 19 19 20 21 21 22 22 21 21 21 21 22 22 23 23 23 23 23 24 24 25 25 24 24 25 25 25 24 25 25
9 9 9 10 10 10 11 11 12 13 14 15 16 16 17 17 17 18 18 18 19 19 19 20 20 21 22 22 23 23 23 23 23 24 24 24 24 25 26 26 25 25 24 25
9 9 9 9 9 9 10 11 11 12 13 14 14 15 15 15 14 15 15 16 17 18 18 19 19 20 21 22 22 23 23 23 23 23 23 24 25 25 25 25 25 25 25 25
9 8 9 9 9 9 10 11 12 12 13 13 13 13 14 14 14 15 15 16 16 17 18 18 19 20 20 21 21 21 22 23 23 23 24 24 24 24 24 25 25 25 26 26
8 8 8 8 8 8 9 10 10 11 12 12 12 13 13 14 14 14 15 15 16 16 17 17 18 18 19 20 21 21 22 22 23 23 24 24 24 24 24 24 25 26 26 26
Wind_Direction
254 252 251 251 252 254 256 259 261 262 263 266 267 268 267 266 265 265 263 263 264 263 262 261 260 261 260 261 262 264 265 266 267 268 269 270 271 273 273 273 275 275 274 274
256 255 254 254 254 256 258 260 261 262 263 265 266 267 268 268 270 268 265 265 264 265 265 264 262 261 260 260 261 263 264 265 267 270 270 271 272 274 274 274 274 277 275 275
257 257 257 257 256 258 259 260 261 262 263 264 264 265 267 269 271 270 269 268 266 266 267 267 264 261 261 260 261 263 265 267 269 270 271 273 273 274 274 274 275 277 277 277
259 258 258 260 259 260 261 261 261 261 261 262 264 265 267 268 268 267 268 269 270 269 266 264 264 263 262 260 261 263 266 267 269 271 273 273 274 276 276 277 278 278 277 277
259 260 261 260 262 263 263 262 261 260 260 261 262 264 265 267 267 267 267 268 269 270 268 266 266 266 266 266 264 264 267 269 271 271 273 273 274 277 278 279 278 276 277 277
259 260 262 263 263 263 263 262 261 261 261 261 262 263 264 264 265 266 267 267 268 269 269 269 270 269 268 269 268 268 269 270 271 272 272 274 275 278 278 279 278 276 276 276
261 261 262 263 264 264 264 263 261 260 260 261 262 263 263 264 265 266 267 268 269 269 270 271 272 273 270 271 270 268 269 270 270 271 272 274 275 276 278 279 278 277 277 277
261 261 261 262 263 262 263 262 262 261 260 260 262 263 264 265 266 267 266 267 269 271 271 272 272 272 271 270 270 270 269 269 270 271 272 273 274 276 277 278 277 276 277 278
261 261 262 261 261 261 260 260 261 262 262 262 262 262 263 264 264 264 265 267 269 271 272 271 272 273 272 271 270 269 269 271 272 271 272 274 275 276 276 277 277 277 278 280
261 261 261 261 262 262 260 259 259 260 261 262 262 262 262 263 264 265 266 268 269 270 271 272 272 274 271 270 270 270 270 271 271 271 272 273 274 276 277 276 276 276 277 278
262 262 261 261 262 261 260 260 260 260 261 261 261 261 262 263 264 265 267 268 269 270 271 272 272 273 272 272 273 272 273 272 271 271 272 273 274 275 276 275 274 275 276 277
262 261 261 261 261 261 260 259 259 260 260 261 262 262 263 264 265 266 267 267 268 270 272 273 273 272 273 273 273 271 272 271 269 270 271 271 272 274 275 274 274 275 275 275
262 261 260 259 259 260 259 259 259 259 260 261 261 262 263 264 265 266 266 266 268 270 271 272 273 273 274 274 274 272 270 270 269 268 268 270 271 273 274 274 274 274 274 275
260 261 260 260 260 258 259 260 260 260 261 261 260 260 262 264 265 265 265 265 267 270 271 272 273 274 274 275 275 274 274 273 268 266 268 268 269 271 272 272 272 272 273 274
256 257 258 258 258 258 260 261 261 261 261 261 260 260 260 261 262 263 264 266 268 270 271 272 273 272 273 274 275 275 275 275 272 268 270 269 269 270 271 271 271 271 273 273
257 257 258 258 258 259 261 262 262 262 262 261 262 262 260 260 261 263 264 266 269 270 270 272 273 272 271 273 275 275 275 275 273 271 272 270 269 269 270 270 272 273 273 273
258 257 257 257 259 261 260 261 261 261 262 261 261 261 260 259 261 263 265 267 268 269 270 271 272 273 274 275 274 275 275 274 273 274 274 272 272 272 272 272 272 272 273 273
258 257 257 258 260 261 262 263 263 262 261 261 261 261 261 261 262 264 266 266 267 269 270 271 272 272 273 274 275 275 275 275 274 275 274 273 275 275 275 274 274 274 274 273
259 260 259 259 260 263 263 262 263 262 262 261 261 260 260 262 265 265 265 265 266 268 268 269 270 270 272 273 273 273 274 274 275 275 275 275 274 275 276 276 276 276 276 274
263 264 263 262 263 265 264 262 260 260 261 261 260 260 262 264 265 265 264 266 267 267 267 269 270 270 271 273 275 274 275 276 278 277 276 276 275 275 276 276 277 278 277 276
265 264 264 262 263 266 264 260 258 260 262 262 262 261 261 262 264 264 265 266 268 269 269 271 271 271 272 272 272 273 274 276 278 277 277 276 275 276 277 276 277 278 278 278
269 268 268 266 263 263 262 258 256 258 260 262 263 262 262 263 264 265 265 267 267 269 271 272 272 272 271 272 273 274 275 276 276 278 279 277 275 276 278 278 278 279 279 280
274 274 275 274 269 264 261 260 261 263 264 266 268 268 268 268 266 267 267 267 267 269 270 272 273 273 272 273 275 276 276 277 277 278 280 279 276 276 276 278 280 281 282 281
280 279 276 276 272 265 263 262 263 265 267 269 271 272 272 271 272 272 269 267 268 270 272 273 275 274 272 272 275 277 277 279 280 281 280 279 279 278 278 278 279 280 281 283
286 284 281 277 271 267 265 264 267 268 270 272 271 272 273 272 272 272 271 272 272 272 273 274 274 274 274 275 276 277 279 281 281 281 280 280 281 279 278 278 278 279 280 282
294 291 285 279 276 275 274 271 269 271 272 273 273 275 275 272 273 275 275 275 274 276 278 279 278 277 277 277 277 278 280 282 282 281 282 282 282 280 279 278 279 280 281 284
292 287 282 280 282 283 283 282 280 277 274 271 274 276 276 273 272 275 279 279 280 282 284 284 283 281 280 279 280 280 281 282 282 282 282 283 284 284 282 281 281 280 281 283
Height
5817 5818 5820 5821 5823 5824 5825 5826 5827 5828 5830 5832 5833 5835 5836 5836 5837 5838 5839 5839 5840 5841 5841 5842 5842 5843 5844 5844 5844 5844 5844 5844 5844 5844 5844 5845 5845 5845 5844 5844 5844 5844 5844 5844
5808 5810 5811 5813 5815 5816 5817 5818 5819 5820 5822 5824 5825 5827 5827 5828 5829 5830 5830 5831 5832 5833 5833 5833 5834 5835 5836 5837 5837 5837 5837 5837 5837 5836 5836 5837 5837 5837 5836 5836 5836 5836 5836 5835
5799 5801 5801 5804 5807 5808 5808 5809 5811 5812 5815 5816 5817 5819 5820 5820 5821 5822 5822 5823 5824 5824 5824 5825 5825 5826 5827 5828 5829 5829 5829 5829 5829 5828 5828 5828 5828 5828 5828 5828 5827 5827 5827 5826
5790 5792 5792 5798 5798 5799 5800 5801 5802 5803 5805 5807 5809 5810 5811 5812 5812 5813 5814 5815 5815 5815 5816 5816 5817 5817 5818 5819 5820 5821 5821 5820 5820 5820 5820 5819 5819 5819 5818 5818 5818 5818 5818 5817
5780 5781 5782 5786 5788 5789 5790 5791 5793 5794 5796 5797 5799 5800 5802 5803 5804 5804 5805 5806 5806 5807 5807 5808 5808 5808 5809 5809 5810 5811 5811 5811 5811 5810 5810 5810 5810 5809 5809 5809 5808 5808 5808 5807
5770 5771 5773 5777 5778 5778 5780 5781 5783 5784 5785 5787 5789 5791 5794 5794 5794 5795 5795 5796 5796 5797 5797 5798 5799 5799 5799 5799 5800 5800 5801 5801 5801 5800 5800 5800 5800 5800 5799 5798 5798 5797 5797 5796
5760 5760 5763 5766 5767 5768 5770 5773 5773 5774 5775 5777 5779 5781 5783 5783 5784 5784 5785 5785 5786 5787 5787 5788 5788 5788 5788 5788 5789 5789 5789 5790 5790 5790 5790 5790 5790 5789 5788 5788 5787 5787 5786 5786
5750 5751 5755 5755 5756 5758 5759 5761 5762 5764 5765 5767 5768 5770 5772 5773 5773 5773 5774 5775 5776 5776 5776 5777 5777 5777 5777 5777 5778 5778 5778 5779 5779 5779 5779 5779 5779 5778 5777 5777 5776 5776 5775 5775
5740 5743 5743 5744 5745 5746 5748 5750 5752 5753 5755 5757 5758 5759 5761 5762 5763 5764 5764 5765 5765 5765 5766 5766 5765 5765 5766 5766 5766 5767 5767 5768 5768 5768 5768 5768 5767 5767 5766 5765 5765 5764 5764 5764
5728 5730 5731 5733 5734 5736 5738 5739 5741 5743 5745 5746 5748 5749 5750 5752 5753 5753 5754 5755 5755 5755 5755 5755 5755 5754 5755 5755 5755 5755 5756 5756 5756 5756 5756 5756 5755 5755 5754 5754 5754 5753 5753 5753
5717 5719 5720 5722 5723 5725 5727 5729 5731 5732 5734 5735 5737 5738 5740 5741 5742 5743 5744 5744 5744 5745 5745 5745 5745 5745 5744 5744 5744 5745 5745 5744 5744 5745 5745 5745 5744 5744 5743 5743 5743 5743 5742 5742
5707 5708 5709 5712 5713 5714 5716 5718 5719 5721 5723 5725 5726 5727 5729 5730 5732 5732 5733 5734 5734 5735 5735 5735 5734 5734 5734 5733 5733 5733 5733 5733 5733 5733 5734 5734 5733 5733 5732 5732 5731 5731 5731 5731
5696 5697 5699 5701 5702 5704 5705 5707 5708 5710 5712 5714 5715 5717 5718 5720 5721 5722 5722 5723 5724 5724 5724 5724 5724 5724 5724 5723 5722 5722 5722 5722 5722 5722 5722 5722 5722 5721 5721 5721 5721 5721 5721 5720
5685 5686 5688 5690 5692 5693 5694 5696 5698 5700 5701 5703 5704 5706 5707 5709 5710 5711 5712 5713 5714 5714 5714 5714 5714 5714 5713 5713 5712 5712 5712 5711 5711 5711 5711 5711 5711 5711 5711 5711 5711 5711 5710 5710
5675 5677 5678 5680 5681 5683 5684 5685 5687 5689 5691 5692 5694 5695 5697 5698 5700 5700 5701 5702 5703 5704 5704 5704 5704 5704 5703 5703 5703 5702 5702 5701 5701 5701 5700 5700 5700 5700 5700 5700 5700 5701 5700 5699
5666 5667 5669 5670 5672 5673 5674 5676 5677 5679 5680 5682 5683 5685 5686 5688 5689 5691 5691 5692 5693 5694 5694 5694 5694 5694 5694 5693 5693 5693 5692 5691 5691 5690 5690 5689 5690 5690 5690 5690 5690 5690 5690 5689
5657 5659 5660 5662 5663 5665 5666 5667 5667 5668 5670 5671 5673 5674 5676 5678 5679 5680 5681 5682 5683 5684 5685 5685 5685 5685 5684 5684 5684 5683 5683 5682 5682 5681 5680 5680 5680 5679 5679 5679 5679 5679 5679 5679
5649 5651 5652 5654 5655 5656 5657 5658 5658 5659 5660 5661 5663 5665 5667 5669 5670 5671 5672 5673 5674 5675 5675 5675 5676 5676 5676 5675 5675 5674 5674 5673 5673 5672 5671 5671 5670 5670 5669 5669 5669 5669 5669 5668
5643 5644 5645 5646 5648 5648 5649 5650 5651 5652 5653 5654 5656 5657 5659 5661 5662 5663 5664 5665 5665 5666 5666 5667 5667 5667 5667 5666 5666 5666 5665 5665 5664 5663 5663 5662 5662 5661 5660 5660 5659 5659 5659 5658
5637 5638 5639 5640 5641 5642 5643 5644 5645 5646 5647 5648 5649 5650 5652 5653 5654 5655 5656 5657 5657 5658 5658 5658 5659 5659 5658 5658 5657 5657 5657 5656 5656 5655 5654 5654 5653 5652 5652 5651 5651 5650 5650 5649
5632 5633 5634 5634 5635 5636 5637 5638 5639 5640 5641 5642 5643 5644 5645 5646 5647 5648 5648 5649 5650 5650 5650 5650 5650 5650 5650 5649 5649 5649 5649 5648 5648 5647 5646 5645 5645 5644 5644 5643 5643 5642 5641 5640
5629 5629 5629 5630 5630 5631 5632 5633 5634 5635 5636 5636 5637 5638 5639 5639 5640 5641 5641 5642 5642 5642 5643 5642 5642 5642 5641 5641 5641 5641 5641 5640 5640 5639 5639 5638 5637 5636 5636 5635 5635 5634 5633 5632
5626 5626 5626 5626 5626 5626 5627 5628 5629 5630 5630 5631 5632 5632 5632 5633 5633 5634 5635 5635 5635 5635 5635 5635 5634 5634 5634 5634 5633 5633 5633 5632 5631 5631 5630 5629 5629 5628 5628 5627 5627 5626 5625 5624
5623 5623 5623 5623 5623 5623 5623 5624 5625 5625 5626 5626 5626 5627 5627 5627 5627 5627 5627 5628 5628 5628 5628 5628 5627 5627 5627 5626 5626 5626 5625 5624 5623 5623 5622 5621 5621 5620 5620 5619 5619 5618 5617 5616
5621 5621 5620 5620 5620 5621 5621 5621 5622 5622 5622 5622 5622 5622 5622 5622 5622 5622 5622 5622 5622 5622 5622 5621 5620 5620 5620 5619 5619 5618 5618 5617 5616 5615 5614 5613 5613 5612 5611 5611 5610 5609 5608 5607
5619 5619 5618 5618 5618 5618 5618 5618 5618 5618 5618 5618 5618 5618 5617 5617 5617 5617 5617 5617 5616 5616 5615 5614 5614 5613 5612 5612 5611 5611 5610 5610 5609 5608 5607 5606 5605 5604 5603 5602 5601 5601 5600 5598
5618 5617 5617 5616 5616 5616 5615 5615 5615 5614 5614 5614 5614 5614 5613 5613 5612 5612 5612 5611 5611 5610 5609 5608 5607 5606 5606 5605 5604 5604 5603 5602 5602 5601 5600 5599 5597 5596 5595 5594 5593 5592 5590 5589